Regional Weather Roundup
Issued by NWS

Home | Current Version | Previous Version | Text Only | Print | Product List | Glossary On
Versions: 1 2 3 4 5 6 7 8 9 10 11 12 13 14 15 16 17 18 19 20 21 22 23 24 25 26 27 28 29 30 31 32 33 34 35 36 37 38 39 40 41 42 43 44 45 46 47 48 49 50
000
ASUS43 KDTX 260710
RWRMI
MICHIGAN HOURLY REGIONAL WEATHER ROUNDUP
NATIONAL WEATHER SERVICE DETROIT/PONTIAC MI
300 AM EDT MON SEP 26 2016

NOTE: "FAIR" INDICATES FEW OR NO CLOUDS BELOW 12,000 FEET WITH NO
SIGNIFICANT WEATHER AND/OR OBSTRUCTION TO VISIBILITY.

MIZ047>049-052>055-059>063-066>070-074>076-081>083-260800-
SOUTHEAST LOWER MICHIGAN

CITY           SKY/WX    TMP DP  RH WIND       PRES   REMARKS
ADRIAN         MOCLDY    66  59  78 SW8       29.92F
ALMA           CLOUDY    64  57  77 S5        29.88F
ANN ARBOR      CLOUDY    63  57  81 SE5       29.92F
BAD AXE        MOCLDY    61  52  72 S13G21    29.90F
CARO           MOCLDY    61  57  85 SE12G17   29.87F
DETROIT CITY   LGT RAIN  66  58  75 SE3       29.94F
DETROIT        CLOUDY    67  58  72 CALM      29.93F
FLINT          MOCLDY    64  57  78 S13       29.88F
GROSSE ILE     CLOUDY    71  58  64 S14       29.92F
HILLSDALE      CLOUDY    63  57  82 S7        29.92F
HOWELL         CLOUDY    64  57  77 S9        29.91S

CITY           SKY/WX    TMP DP  RH WIND       PRES   REMARKS
JACKSON        PTCLDY    62  58  86 S6        29.90F
LAMBERTVILLE   LGT RAIN  67  55  66 S5        29.93F
LANSING        CLOUDY    65  55  70 S8        29.89F
LAPEER         CLOUDY    63  57  82 SE9G18    29.91F
MASON          MOCLDY    64  56  78 S7        29.90S
MONROE         CLOUDY    67  55  64 S6        29.92F
MT. CLEMENS    LGT RAIN  68  59  73 S10       29.92F
PONTIAC        CLOUDY    64  57  78 SE10      29.91F
PORT HOPE        N/A     63  54  72 SE18G29   29.87F
PORT HURON     CLOUDY    59  54  82 SE8       29.94F
TRI CITIES     LGT RAIN  63  56  78 S8        29.87F
MIDLAND        RAIN      58  55  89 W3        29.87S
TROY           CLOUDY    64  59  85 SE3       29.95F
SAGINAW HB     PTCLDY    64  54  68 S8        29.86F
$$
MIZ043>046-050>051-056>058-064>065-071>073-077>080-260800-
SOUTHWEST LOWER MICHIGAN

CITY           SKY/WX    TMP DP  RH WIND       PRES   REMARKS
BATTLE CREEK   CLOUDY    66  59  78 SW7       29.90F
BENTON HARBOR  LGT RAIN  66  57  72 W13       29.94R
BIG RAPIDS     CLOUDY    61  60  97 SE5       29.87S
COLDWATER      CLOUDY    68  62  81 SW5       29.91F
FREMONT        CLOUDY    64  61  93 NW8       29.86F
HOLLAND        LGT RAIN  66  62  87 VRB6      29.90S
GRAND RAPIDS   RAIN      66  63  90 W8        29.89S FOG
IONIA          CLOUDY    62  55  76 SW8       29.88S
KALAMAZOO      CLOUDY    70  63  78 W9        29.91F
LUDINGTON      DRIZZLE   62  59  91 W7        29.85S
MARSHALL       CLOUDY    65  59  81 SW5       29.90F
MOUNT PLEASANT LGT RAIN  62  55  76 SW6       29.87S
MUSKEGON       CLOUDY    65  59  81 W8        29.88F
SOUTH HAVEN    LGT RAIN  67  62  81 W10G16    29.93R
$$
MIZ016>042-260800-
NORTHERN LOWER MICHIGAN

CITY           SKY/WX    TMP DP  RH WIND       PRES   REMARKS
ALPENA         HVY RAIN  57  54  89 S12       29.86F FOG
BEAVER ISLAND  LGT RAIN  62  61  97 S12G17    29.77F
BELLAIRE       LGT RAIN  58  55  91 S7        29.83F
CADILLAC       CLOUDY    57  56  94 S5        29.85F
CHARLEVOIX     RAIN      59  58  97 S12       29.83F
FRANKFORT      LGT RAIN  64  58  82 W9G17     29.82S
GAYLORD        RAIN      56  52  86 S14       29.86F FOG
GRAYLING       RAIN      55  55  97 CALM      29.87F
HARBOR SPRINGS RAIN      58  56  96 S6        29.82F
HOUGHTON LAKE  LGT RAIN  56  52  86 S9        29.88F
MANISTEE       LGT RAIN  62  60  93 SW6       29.83F
OSCODA         CLOUDY    58  56  94 S10G17    29.88F
PELLSTON       RAIN      58  56  93 S6        29.82F FOG
ROGERS CITY    CLOUDY    57  53  86 S12G17    29.85R
TRAVERSE CITY  LGT RAIN  62  59  90 VRB3      29.81F
$$
MIZ007>008-015-260800-
EASTERN UPPER MICHIGAN

CITY           SKY/WX    TMP DP  RH WIND       PRES   REMARKS
KINROSS        LGT RAIN  57  56  96 SE17      29.80F
MACKINAC ISLAN RAIN      58  58 100 S8G20     29.80F
NEWBERRY       LGT RAIN  61  60  97 S10       29.74F
S. S. MARIE    RAIN      59  57  93 SE14G25   29.80F
MUNISING         N/A     63  60  90 SW7       29.71S
$$
MIZ004>006-011>014-085-260800-
CENTRAL UPPER MICHIGAN

CITY           SKY/WX    TMP DP  RH WIND       PRES   REMARKS
MANISTIQUE     CLOUDY    64  62  93 CALM      29.72F
ESCANABA       CLOUDY    60  57  89 SW6       29.75F
MENOMINEE        N/A    N/A N/A N/A MISG        N/A
SAWYER-GWINN   CLOUDY    56  55  95 SW5       29.74F
$$
MIZ001>003-009>011-084-260800-
WESTERN UPPER MICHIGAN

CITY           SKY/WX    TMP DP  RH WIND       PRES   REMARKS
IRON MOUNTAIN  CLOUDY    57  52  83 W8        29.75S
HOUGHTON       CLOUDY    55  52  89 W12       29.68F
COPPER HARBOR    N/A     58  55  90 VRB5      29.66F
IRONWOOD       CLOUDY    54  46  76 W15G24    29.74F
$$

ABBREVIATIONS USED IN REMARKS
   TC - TEMPERATURE IN CELSIUS
  WCI - WIND CHILL INDEX
   HX - HEAT INDEX
  VSB - VISIBILITY




USA.gov is the U.S. government's official web portal to all federal, state and local government web resources and services.